This demonstration page uses our WeatherBlox Daily Observations layout. Learn more.

Left ArrowRight Arrow

Hourly Observations for August 13, 2021

Temp ( °F °C ) Dew Point ( °F °C ) Humidity (%) Winds ( mph kmh ) Pressure ( in mb ) Visibility ( mi km ) Precip ( " mm )
12:53 am 00:53 Cloudy with Smoke 80 26.7 58 14.4 47 47 NE 3 6 29.88 1012 10 16 0.00 0.00
1:53 am 01:53 Cloudy with Smoke 79 26.1 58 14.4 49 49 Calm 29.89 1012 10 16 0.00 0.00
2:53 am 02:53 Clear with Smoke 76 24.4 59 15 56 56 Calm 29.91 1013 10 16 0.00 0.00
3:53 am 03:53 Clear with Smoke 76 24.4 60 15.6 58 58 Calm 29.92 1013 10 16 0.00 0.00
4:53 am 04:53 Clear with Smoke 74 23.3 59 15 60 60 Calm 29.92 1013 10 16 0.00 0.00
5:53 am 05:53 Cloudy with Smoke 74 23.3 58 14.4 57 57 Calm 29.93 1014 10 16 0.00 0.00
6:53 am 06:53 Cloudy with Smoke 72 22.2 59 15 64 64 Calm 29.96 1014 10 16 0.00 0.00
7:53 am 07:53 Mostly Cloudy with Haze 73 22.8 58 14.4 59 59 Calm 29.96 1015 6 10 0.00 0.00
8:53 am 08:53 Mostly Cloudy with Haze 75 23.9 56 13.3 52 52 Calm 29.96 1015 6 10 0.00 0.00
9:53 am 09:53 Mostly Cloudy with Haze 77 25 56 13.3 48 48 S 3 6 29.96 1015 6 10 0.00 0.00
10:53 am 10:53 Mostly Cloudy with Haze 79 26.1 57 13.9 47 47 Calm 29.97 1015 6 10 0.00 0.00
11:53 am 11:53 Hazy 85 29.4 56 13.3 37 37 Calm 29.96 1015 9 14 0.00 0.00
12:53 pm 12:53 Hazy 89 31.7 56 13.3 33 33 VRB 3 6 29.95 1014 8 13 0.00 0.00
1:53 pm 13:53 Hazy 92 33.3 55 12.8 29 29 Calm 29.93 1014 9 14 0.00 0.00
2:53 pm 14:53 Cloudy with Haze 93 33.9 55 12.8 28 28 VRB 3 6 29.92 1013 4 6 0.00 0.00
3:34 pm 15:34 Cloudy with Haze 94 34.4 55 12.8 27 27 Calm 29.88 1012 3 4 0.00 0.00
3:53 pm 15:53 Cloudy with Haze 94 34.4 55 12.8 27 27 Calm 29.90 1012 3 4 0.00 0.00
4:15 pm 16:15 Cloudy with Haze 96 35.6 55 12.8 25 25 Calm 29.87 1012 3 4 0.00 0.00
4:22 pm 16:22 Cloudy with Haze 95 35 55 12.8 26 26 Calm 29.87 1012 3 4 0.00 0.00
4:53 pm 16:53 Cloudy with Haze 95 35 55 12.8 26 26 WSW 3 6 29.88 1012 2 3 0.00 0.00
5:04 pm 17:04 Cloudy with Haze 95 35 55 12.8 26 26 W 6 9 29.86 1011 2 3 0.00 0.00
5:26 pm 17:26 Cloudy with Haze 95 35 55 12.8 26 26 W 5 7 29.86 1011 1 2 0.00 0.00
5:34 pm 17:34 Cloudy with Haze 95 35 55 12.8 26 26 WNW 5 7 29.86 1011 2 2 0.00 0.00
5:53 pm 17:53 Cloudy with Haze 95 35 56 13.3 27 27 Calm 29.88 1012 2 2 0.00 0.00
6:50 pm 18:50 Cloudy with Haze 97 36 57 14 27 27 Calm 29.86 1011 2 3 0.00 0.00
6:53 pm 18:53 Cloudy with Haze 96 35.6 56 13.3 26 26 Calm 29.88 1012 2 3 0.00 0.00
7:02 pm 19:02 Cloudy with Haze 96 35.6 56 13.3 26 26 Calm 29.87 1012 2 3 0.00 0.00
7:10 pm 19:10 Cloudy with Haze 96 35.6 56 13.3 26 26 N 3 6 29.87 1012 2 3 0.00 0.00
7:24 pm 19:24 Cloudy with Haze 95 35 56 13.3 27 27 NE 3 6 29.87 1012 2 3 0.00 0.00
7:40 pm 19:40 Cloudy with Haze 93 33.9 57 13.9 30 30 Calm 29.88 1012 2 3 0.00 0.00
7:53 pm 19:53 Cloudy with Haze 91 32.8 59 15 34 34 S 5 7 29.91 1013 2 3 0.00 0.00
8:29 pm 20:29 Cloudy with Haze 88 31.1 59 15 38 38 Calm 29.91 1013 3 4 0.00 0.00
8:53 pm 20:53 Cloudy with Haze 88 31.1 59 15 38 38 S 3 6 29.93 1013 3 4 0.00 0.00
9:13 pm 21:13 Cloudy with Haze 87 30.6 59 15 39 39 S 3 6 29.93 1014 3 4 0.00 0.00
9:40 pm 21:40 Cloudy with Haze 86 30 60 15.6 42 42 S 5 7 29.94 1014 3 5 0.00 0.00
9:53 pm 21:53 Cloudy with Haze 85 29.4 61 16.1 45 45 S 5 7 29.96 1014 4 6 0.00 0.00
10:53 pm 22:53 Hazy 83 28.3 61 16.1 48 48 undefined N/A 29.96 1015 5 8 0.00 0.00
11:53 pm 23:53 Hazy 82 27.8 61 16.1 49 49 NNE 3 6 29.96 1015 5 8 0.00 0.00

Powered by AerisWeather